Home > Weather > Yaren > Past weeks

Flag for Nauru Past Weather in Yaren, Nauru — Yesterday and Last 2 Weeks

Now
86 °F

Passing clouds.


Feels Like: 97 °F
Forecast: 82 / 87 °F
Wind: 14 mph from East

Location: Betio Village

Current Time: Jul 24, 2016 at 7:01:13 PM

Latest Report: Jul 24, 2016 at 6:00 PM


Visibility: N/A

Pressure: 29.71 "Hg

Humidity: 75%

Dew Point: 77 °F

Location of YarenLocation

Past Weather in Yaren — Graph

°F

Yaren Temperature Yesterday

Maximum temperature yesterday: 90 °F (at 11:00 AM)
Minimum temperature yesterday: 82 °F (at 1:00 AM)
Average temperature yesterday: 86 °F

High & Low Weather Summary for the Past Weeks

 TemperatureHumidityPressure
High90 °F (Jul 12, 3:00 PM)100% (Jul 16, 2:00 PM)29.89 "Hg (Jul 16, 2:00 PM)
Low68 °F (Jul 16, 2:00 PM)62% (Jul 18, 4:00 PM)29.68 "Hg (Jul 23, 4:00 PM)
Average85 °F76%29.80 "Hg
* Reported Jul 9 6:00 PM — Jul 24 6:00 PM, Yaren, Weather by CustomWeather, © 2016

Note: Actual official high and low records may vary slightly from our data, if they occured in-between our weather recording intervals... More about our weather records

Advertising

Yaren Weather History for the Previous 24 Hours

Scroll right to see more
 ConditionsComfort  
Time TempWeatherWind HumidityBarometerVisibility
6:00 PM
Sun, Jul 24
86 °FPassing clouds.14 mph75%29.71 "HgN/A
5:00 PM88 °FPassing clouds.13 mph70%29.71 "HgN/A
4:00 PM88 °FScattered clouds.13 mph66%29.71 "HgN/A
3:00 PM88 °FScattered clouds.15 mph70%29.71 "HgN/A
2:00 PM88 °FScattered clouds.20 mph70%29.74 "HgN/A
1:00 PM88 °FScattered clouds.16 mph70%29.74 "HgN/A
11:00 AM88 °FScattered clouds.15 mph75%29.77 "HgN/A
10:00 AM86 °FScattered clouds.14 mph75%29.80 "HgN/A
9:00 AM81 °FSprinkles. Broken clouds.15 mph84%29.80 "HgN/A
8:00 AM82 °FScattered clouds.9 mph84%29.77 "HgN/A
7:00 AM82 °FScattered showers. Broken clouds.13 mph79%29.74 "HgN/A
6:00 AM82 °FPartly cloudy.14 mph79%29.74 "HgN/A
5:00 AM82 °FPassing clouds.13 mph79%29.74 "HgN/A
4:00 AM82 °FPartly cloudy.13 mph84%29.74 "HgN/A
3:00 AM82 °FPartly cloudy.6 mph84%29.74 "HgN/A
2:00 AM81 °FScattered showers. Passing clouds.No wind84%29.74 "HgN/A
1:00 AM79 °FScattered showers. Passing clouds.No wind89%29.77 "HgN/A
12:00 AM81 °FScattered showers. Passing clouds.2 mph84%29.77 "HgN/A
11:00 PM
Sat, Jul 23
84 °FPassing clouds.12 mph74%29.77 "HgN/A
10:00 PM84 °FPassing clouds.12 mph79%29.77 "HgN/A
9:00 PM84 °FPassing clouds.14 mph74%29.77 "HgN/A
8:00 PM84 °FPassing clouds.14 mph79%29.74 "HgN/A
7:00 PM84 °FPassing clouds.14 mph74%29.74 "HgN/A
Weather by CustomWeather, © 2016

See weather overviewHow to use our weather pages